sat.trackr.live / text

‹ back to catalog

STARLINK-35553

NORAD 66120 · 2025-237G

PAYLOAD ACTIVE UNKNOWN

§ Identity

Operator
Country
US
Launch date
2025-10-22
Launch site
AFWTR
Launch vehicle
Mass (kg)
RCS (m²)

Purposes: comms

External: N2YO · Heavens-Above · Gunter

§ Orbital elements

Epoch: 2026-05-25T00:00:39.802752Z

Period
94.11 min
Inclination
53.1594°
Eccentricity
0.0001183
Mean motion
15.30190689 rev/d
Perigee alt
474.4 km
Apogee alt
476.1 km
Semi-major
6,853.4 km
B*
3.3907e-4
RAAN
45.1969°
Arg perigee
62.8971°
Mean anomaly
297.2150°
Rev number
3,429

§ Raw data

STARLINK-355531 66120U 25237G   26145.00046068  .00009693  00000+0  33907-3 0  99972 66120  53.1594  45.1969 0001183  62.8971 297.2150 15.30190689 34290

JSON: /api/v1/satellites/66120 · /tle

For live sub-satellite position, see the globe view (requires WebGL).

§ Visibility from observer

Set your observer location to see the next 7 days of passes ≥ 10°. The values pass through the URL so the page stays shareable.

No JS? Fill the form by hand. The geolocation button needs JavaScript.